Trail des Hautes Fagnes (Xhoffraix) 28/09/2013 - 38 Km
Place Nom Prenom Temps Km/h Place. Cat. Cat.
1 VAN GASSE ETIENNE 327 2:50:44 13,4 1 S
2 CHARLIER JEAN FRANCOIS 466 2:50:53 13,3 2 S
3 BOUFFIOUX ERIC 31 2:53:48 13,1 1 V1
4 VERHAEGHE MICHEL 343 2:54:56 13,0 3 S
5 WIRTGEN VINCENT 385 2:59:37 12,7 4 S
6 MAGNEE FABIAN 214 3:03:15 12,4 2 V1
7 VAN WETTER RENAUD 334 3:03:32 12,4 3 V1
8 LEMMENS DAVY 202 3:05:07 12,3 5 S
9 RECKER MARCEL 412 3:07:09 12,2 1 V2
10 PIERRON OLIVIER 261 3:08:18 12,1 6 S
11 BASTIN MICHEL 12 3:11:00 11,9 7 S
12 VERMEULEN KEVIN 345 3:14:56 11,7 8 S
13 ISTACE JOSE 374 3:15:57 11,6 4 V1
14 LALLEMAND GEOFFREY 528 3:20:12 11,4 9 S
15 VANKERKOM RAPHAËL 338 3:21:07 11,3 5 V1
16 BERTON GUY 533 3:22:45 11,2 6 V1
17 HUYBRECHTS BART 169 3:23:27 11,2 10 S
18 NEIMRY DIMITRI 236 3:24:37 11,1 11 S
19 DEWAELE STEVEN 97 3:25:26 11,1 7 V1
20 HENROTTE SEBASTIEN 552 3:27:36 11,0 12 S
21 MAHAUX OLIVIER "WALLY" 215 3:28:03 11,0 13 S
22 VAN DYCK DIMITRI 325 3:28:06 11,0 14 S
23 LEGRAND LIONEL 199 3:28:54 10,9 15 S
24 BERG CLAUDE 526 3:29:32 10,9 16 S
25 GREGOIRE JOEL 141 3:29:34 10,9 17 S
26 HILGER-SCHÜTZ JEROME 165 3:31:16 10,8 18 S
27 VIJVERMAN JAN 347 3:32:32 10,7 19 S
28 KOTECKÝ ONDŘEJ 183 3:32:36 10,7 20 S
29 SCHMITZ SERGE 395 3:33:21 10,7 21 S
30 WEENING MARC 469 3:33:48 10,7 22 S
31 BEHBEHANI RAMIN 17 3:33:57 10,7 8 V1
32 DEMIRKAZAN MIKAIL 84 3:33:59 10,7 23 S
33 GERLACH ANNE 478 3:34:36 10,6 1 A1
34 STRUYFS JOZEF 503 3:34:40 10,6 2 V2
35 DEFECHEREUX FABIAN 76 3:36:14 10,5 9 V1
36 MORNARD JEAN-FRANCOIS 534 3:36:21 10,5 10 V1
37 LAFFINEUR PIERRE 186 3:37:02 10,5 24 S
38 VAN HEUSDEN OLIVIER 329 3:37:08 10,5 11 V1
39 RENARD YVES 572 3:37:35 10,5 12 V1
40 JACOB-PAQUAY ERIC 170 3:38:21 10,4 13 V1
41 DEGRAVE JONATHAN 561 3:38:40 10,4 25 S
42 DOUTRELOUX FRANCOIS 482 3:39:12 10,4 26 S
43 ANDRE GAËLLE 7 3:40:10 10,4 2 A1
44 LAMBOTTE BENOIT 564 3:40:23 10,3 27 S
45 MARGRAFF BRUNO 219 3:41:11 10,3 14 V1
46 PAGNIEZ JÉRÔME 241 3:43:28 10,2 15 V1
47 MERCKX PATRICK 227 3:44:03 10,2 3 V2
48 DETRY RENAUD 571 3:44:09 10,2 16 V1
49 BELLINGS CHRISTOPH 19 3:44:23 10,2 28 S
50 TONKA THIERRY 316 3:44:40 10,1 17 V1
51 WILLEMS SIMON 359 3:44:49 10,1 18 V1
52 DONNAY RAPHAEL 105 3:46:11 10,1 29 S
53 PHILIPPOT CHARLES 257 3:46:13 10,1 30 S
54 SCHREUER JULIEN 289 3:47:44 10,0 31 S
55 VAN DEN DRIESSCHE JURGEN 392 3:47:48 10,0 32 S
56 DELTOMBE MATTHIEU 414 3:47:57 10,0 33 S
57 BAUDINET LAURENT 393 3:49:13 9,9 34 S
58 HANNECART NICOLAS 545 3:49:23 9,9 35 S
59 DE RIJK NILS 69 3:51:02 9,9 19 V1
60 DE VLAMINCK LIEVEN 558 3:51:20 9,9 36 S
61 SIX JAN WILLEM 296 3:51:49 9,8 4 V2
62 VERHULST JEAN-CHRISTOPHE 516 3:52:06 9,8 20 V1
63 LAMBERT GREGORY 189 3:52:08 9,8 37 S
64 SWARTENBROUCKX VINCENT 308 3:52:12 9,8 21 V1
65 HERNANDEZ LUDOVIC 527 3:52:17 9,8 38 S
66 BONNEVALLE GERT 543 3:52:36 9,8 22 V1
67 COX JELLE 544 3:52:38 9,8 39 S
68 VANDEPUTTE PASCAL 421 3:52:40 9,8 23 V1
69 PEETERS IVO 383 3:53:17 9,8 5 V2
70 VAN NEVEL FRANS 332 3:53:18 9,8 6 V2
71 MATTHEE ALEXANDRE 415 3:53:55 9,7 24 V1
72 VAN EYCKE GERT 419 3:53:58 9,7 25 V1
73 LENAERTS EDWIN 203 3:54:09 9,7 26 V1
74 COLINET STEVE 53 3:54:47 9,7 40 S
75 PAULUSSEN MAURICE 246 3:55:07 9,7 27 V1
76 FIGEYS ARNOUT 119 3:55:17 9,7 41 S
77 MEYER CHRISTOPHE 228 3:56:05 9,7 42 S
78 MERCIER MICHEL 512 3:56:14 9,7 28 V1
79 PHILIPPOT HENRY 254 3:57:24 9,6 43 S
80 GRENADE FRANCOIS 472 3:57:34 9,6 44 S
81 HENNUS LUC 155 3:57:40 9,6 7 V2
82 VINDERS ROGER 350 3:57:48 9,6 45 S
83 NELISSEN JOHNY 237 3:57:59 9,6 29 V1
84 MULLER ALAIN 508 3:58:16 9,6 30 V1
85 HERCOT PIERRE LUC 437 3:58:17 9,6 46 S
86 SMIT PASCAL 297 3:58:33 9,6 31 V1
87 VAN OVERLOOP LAURENT 637 3:58:33 9,6 32 V1
88 PAUWELS KRIS 247 3:58:43 9,6 33 V1
89 BUSCHOW RUTGER 44 3:59:15 9,5 47 S
90 LAGAMME RAVITO 187 3:59:20 9,5 34 V1
91 FLOREN ERIC 445 3:59:32 9,5 48 S
92 PAQUAY RÉGIS 243 3:59:44 9,5 49 S
93 HENDRICKX ERIC 152 4:00:31 9,5 35 V1
94 HEYNS PAUL 164 4:00:50 9,5 1 V3
95 WERGIFOSSE BRUNO 358 4:00:54 9,5 36 V1
96 DEMONCEAU JEAN-LUC 85 4:01:02 9,5 37 V1
97 OREINS PIERRE 240 4:01:04 9,5 8 V2
98 REUL BENEDCITE 277 4:01:22 9,4 1 D
99 ROOMANS CHRISTIAN 279 4:01:23 9,4 9 V2
100 BRÉVER JEAN-FRANÇOIS 37 4:01:40 9,4 50 S
101 DRIESSEN RICK 106 4:01:42 9,4 10 V2
102 MULLER FLORIS 379 4:01:53 9,4 51 S
103 JACQMIN NATHANAEL 380 4:02:06 9,4 38 V1
104 ALBERT STEVE 3 4:02:59 9,4 52 S
105 BLAUW MICHIEL 413 4:03:17 9,4 53 S
106 SCHELLENS IVAN 285 4:03:32 9,4 54 S
107 JENNIGES ALEXANDER 484 4:04:01 9,3 39 V1
108 LIÉGEOIS MARC 206 4:04:02 9,3 40 V1
109 DANNEMARK MAXIME 63 4:04:19 9,3 55 S
110 CREMER ROGER 60 4:04:20 9,3 2 V3
111 DAVID GÉRARD 66 4:05:05 9,3 41 V1
112 GRANVILLE DIMITRI 139 4:05:11 9,3 42 V1
113 RADERMACHER ROGER 265 4:05:21 9,3 43 V1
114 MONVILLE JEAN-MARC 575 4:05:22 9,3 44 V1
115 HENDRIKS ROEL 153 4:06:16 9,3 11 V2
116 VAN DER VINNE HANS 471 4:06:38 9,2 56 S
117 PLASMAN CHRISTIAN 263 4:06:39 9,2 45 V1
118 PEETERS JACK 381 4:06:46 9,2 12 V2
119 MOURAD CHRISTOPHE 563 4:06:56 9,2 46 V1
120 SCHWAIGER YVES 639 4:07:02 9,2 47 V1
121 GREGOIRE ETIENNE 142 4:07:03 9,2 48 V1
122 MARTENS HANS 220 4:07:07 9,2 13 V2
123 WAUMANS BART 355 4:07:28 9,2 49 V1
124 WANSART NICOLAS 498 4:07:43 9,2 57 S
125 SIMONS JOERG 294 4:07:44 9,2 50 V1
126 KRIER BENOIT 184 4:07:45 9,2 51 V1
127 BRAUN CHRISTOPHE 402 4:08:05 9,2 58 S
128 BURTOMBOY GREGORY 43 4:08:07 9,2 59 S
129 FAVIER ANNE 375 4:08:08 9,2 1 A3
130 GODFROID YVES 131 4:08:22 9,2 52 V1
131 BEGUIN OLIVIER 16 4:08:51 9,2 60 S
132 GÉRARD JÉRÉMY 128 4:08:52 9,2 61 S
133 VERFAILLIE STEFAAN 341 4:09:01 9,2 53 V1
134 PIRET PASCAL 262 4:09:15 9,1 14 V2
135 DEGUELDRE JEAN-LOUIS 641 4:10:21 9,1 15 V2
136 ZANIER LAURENT 363 4:10:48 9,1 62 S
137 JACQUES DE DIXMUDE MATHIEU 171 4:10:58 9,1 54 V1
138 MOREAU MICHÈLE 235 4:11:03 9,1 1 A2
139 VALEN ANITA 382 4:11:28 9,1 2 A2
140 HUENS ETIENNE 565 4:11:35 9,1 55 V1
141 VANTORRE LUC 490 4:11:58 9,0 56 V1
142 PARMENTIER FRANCOIS 244 4:12:06 9,0 63 S
143 LUX ARNO 211 4:12:19 9,0 57 V1
144 VERCAMMEN MAARTEN 340 4:12:37 9,0 64 S
145 SIMONSE EVA 295 4:12:52 9,0 2 D
146 HUBERT PIERRE 406 4:13:02 9,0 65 S
147 DALLONS ARNAUD 407 4:13:03 9,0 58 V1
148 DEGRAVE THIBAUT 560 4:13:24 9,0 66 S
149 BRIALMONT IRENE 38 4:13:35 9,0 2 A3
150 MAENE DAVID 450 4:13:36 9,0 67 S
151 BERTRAND CYRILLE 21 4:13:52 9,0 59 V1
152 SCHOLZEN CHRISTOPHE 428 4:13:56 9,0 68 S
153 GHILAIN OLIVIER 496 4:14:38 9,0 69 S
154 FROIDCOEUR XAVIER 124 4:14:43 9,0 70 S
155 FRAIPONT JEAN MARC 502 4:14:58 8,9 60 V1
156 LEROY THEO 538 4:15:49 8,9 16 V2
157 THIRY NICOLAS 553 4:15:59 8,9 71 S
158 COLLIGNON ARNAUD 55 4:16:20 8,9 72 S
159 LAUMERS MICHAEL 192 4:16:30 8,9 73 S
160 BORN MARGOT 29 4:16:39 8,9 3 A2
161 DESTOOP PETER 94 4:16:58 8,9 61 V1
162 LEPIECE GWENNMAEL 204 4:17:14 8,9 74 S
163 HENDRICK MARTIN 150 4:17:33 8,9 75 S
164 HENDRICK JULIEN 149 4:17:34 8,9 76 S
165 ADAM JEROEN 432 4:17:42 8,8 77 S
166 DELCHAMBRE RENAUD 79 4:17:55 8,8 78 S
167 GEERINCK WERNER 384 4:18:07 8,8 17 V2
168 ROYAKKERS DIDIER 280 4:19:14 8,8 62 V1
169 COLSON MICHEL 56 4:19:45 8,8 63 V1
170 FINK ALAIN 121 4:20:02 8,8 64 V1
171 LEJEUNE PHILIPPE 391 4:20:45 8,7 65 V1
172 THOMSON GÉRALD 314 4:20:46 8,7 66 V1
173 DELNOY OLIVIER 81 4:21:01 8,7 67 V1
174 BIERMANS PHILIPPE 25 4:21:08 8,7 79 S
175 CASTRIQUE IVON 47 4:21:44 8,7 18 V2
176 GERARD RENE 460 4:21:54 8,7 80 S
177 CAMBIER PASCAL 470 4:22:02 8,7 81 S
178 VELISSARIOU FABRICE 491 4:22:14 8,7 68 V1
179 TOUSSAINT FRANK 455 4:22:24 8,7 69 V1
180 THEUNISSEN BART 313 4:23:48 8,6 82 S
181 PEETERS PIET 250 4:23:59 8,6 70 V1
182 BERTRAND VALERY 22 4:24:02 8,6 83 S
183 HEYNDRICKX JAN 162 4:24:07 8,6 19 V2
184 SONTAG THIERRY 300 4:24:11 8,6 84 S
185 SOMVILLE PIERROT 299 4:24:23 8,6 85 S
186 OLLEVIER MARIO 454 4:24:44 8,6 71 V1
187 BERTEMES LOÏC 20 4:24:47 8,6 86 S
188 DEGEE JULIEN 442 4:24:49 8,6 87 S
189 PHILIPPIN GREGORY 536 4:25:22 8,6 88 S
190 JUGNON TIMOTHEE 542 4:25:38 8,6 89 S
191 CARABIN CHRISTOPHE 46 4:25:39 8,6 72 V1
192 MATTIUZ FABIAN 476 4:25:52 8,6 90 S
193 HEROUFOSSE DAVID 158 4:25:53 8,6 91 S
194 TOUSSAINT PATRICE 635 4:26:20 8,6 73 V1
195 GRUMIAUX THIERRY 144 4:26:30 8,6 74 V1
196 LEJEUNE CHRISTOPHE 549 4:27:03 8,5 75 V1
197 THUNUS EDDY 573 4:27:10 8,5 76 V1
198 EUBELEN FRANCIS 448 4:27:22 8,5 20 V2
199 VAN BROEKHOVEN ERWIN 320 4:27:29 8,5 92 S
200 BOUTET CEDRIC 429 4:27:55 8,5 93 S
201 RENSONNET DIDI 275 4:27:58 8,5 94 S
202 LODOMEZ OLIVIER 548 4:28:02 8,5 95 S
203 SERRAF FOUAD 291 4:28:10 8,5 96 S
204 JERÔME OLIVIER 177 4:28:12 8,5 97 S
205 VAN ORSHAEGEN LOUIS 333 4:28:13 8,5 21 V2
206 KRÄMER SIEGFRIED 401 4:28:44 8,5 22 V2
207 GAUSSET OLIVIER 126 4:28:45 8,5 77 V1
208 MARECHAL NICOLAS 443 4:28:52 8,5 98 S
209 SCHILTZ MARC 286 4:29:12 8,5 78 V1
210 TERWIEL AAD 310 4:29:29 8,5 23 V2
211 VINTCENT JEAN PAUL 351 4:29:30 8,5 79 V1
212 DE JONGHE WILLEM 390 4:29:45 8,5 24 V2
213 JEWASINSKI MICHEL 425 4:29:46 8,5 80 V1
214 FISCHER RENAUD 122 4:30:00 8,4 81 V1
215 SCHOONACKERS HANS 288 4:30:15 8,4 82 V1
216 WAUTERS DIRK 562 4:30:25 8,4 99 S
217 VAN AS NATHALIE 465 4:30:26 8,4 3 A1
218 GAVAZZA VINCENT 127 4:30:47 8,4 83 V1
219 WUIDART MOUMOULE 535 4:30:48 8,4 100 S
220 THIRION RAYMOND 377 4:31:09 8,4 25 V2
221 NICKMANS LUDWIG 418 4:31:26 8,4 26 V2
222 HENDRICKX HARRIE 151 4:31:35 8,4 27 V2
223 BAYOT BERNARD 14 4:31:49 8,4 28 V2
224 GODON ANNE 489 4:32:01 8,4 4 A1
225 HERBET ERIC 157 4:32:13 8,4 84 V1
226 KAIVERS DANIEL 181 4:32:15 8,4 29 V2
227 HEUSSCHEN DOMINIQUE 161 4:32:40 8,4 85 V1
228 DEMONCEAU HENRI 453 4:32:41 8,4 30 V2
229 DUCAMP JACQUES 108 4:32:54 8,4 86 V1
230 BONTE DAVID 28 4:32:59 8,4 101 S
231 CNYRIM SERGE 372 4:33:01 8,4 31 V2
232 PIERREUX CHARLIE 259 4:33:02 8,4 102 S
233 MAQUINAY ANDRÈ 531 4:33:04 8,3 87 V1
234 MAONT VINCENT 388 4:33:05 8,3 103 S
235 RAEYMAEKERS INGE 267 4:33:13 8,3 5 A1
236 RAHIER JULIEN 424 4:33:23 8,3 104 S
237 CONROTTE MICHAEL 568 4:33:42 8,3 105 S
238 DROPSY MICHEL 494 4:35:19 8,3 3 V3
239 VAN GEERTERUY KOEN 328 4:35:37 8,3 106 S
240 LEJEUNE DAVID 200 4:35:58 8,3 107 S
241 LECLOUX JACKY 483 4:36:06 8,3 32 V2
242 ESTERHARY NICHOLAS 410 4:36:13 8,3 33 V2
243 VANBERGEN ERIC 551 4:36:21 8,3 108 S
244 DEMARCHE CHRISTOPHE 518 4:36:33 8,2 109 S
245 MELISEN CHRISTELLE 225 4:36:39 8,2 6 A1
246 PIERRON ROLAND 260 4:37:16 8,2 4 V3
247 NOGY ADRIEN 566 4:37:41 8,2 110 S
248 DUMONT DE CHASSART WAUTHIER 110 4:37:43 8,2 34 V2
249 GASPARO CHRISTIAN 501 4:38:02 8,2 88 V1
250 GRANDJEAN QUENTIN 463 4:38:07 8,2 111 S
251 LHERMITTE MICHEL 423 4:38:16 8,2 89 V1
252 VAN LAAR MICHEL 330 4:38:16 8,2 90 V1
253 BURNIAT ETIENNE 456 4:38:33 8,2 35 V2
254 VAN EYSENDEYK PIETER 569 4:38:39 8,2 91 V1
255 ROZET FABRICE 389 4:38:56 8,2 36 V2
256 VINCENT DOMINIQUE 349 4:39:03 8,2 3 A3
257 CRATZBORN JEROME 59 4:39:12 8,2 112 S
258 AKIHARY RODERICK 2 4:39:13 8,2 113 S
259 HOSTE PETER 167 4:39:17 8,2 37 V2
260 PEETERS KURT 249 4:39:30 8,2 92 V1
261 CABAY JEAN-MARC 45 4:39:36 8,2 93 V1
262 GOBATTO GIOVANNI 451 4:39:49 8,1 114 S
263 LHOAS FRANCOISE 555 4:39:54 8,1 4 A2
264 GOOSSE PHILIPPE 135 4:39:56 8,1 38 V2
265 DIRIX LODE 102 4:39:57 8,1 39 V2
266 JERÔME FRÉDÉRIC 176 4:40:00 8,1 94 V1
267 MERCIER DOMINIQUE 226 4:40:03 8,1 95 V1
268 BURTOMBOY NICOLAS 42 4:40:27 8,1 115 S
269 DAVID PATRICK 65 4:40:35 8,1 40 V2
270 FASBINDER OLIVIER 117 4:40:36 8,1 96 V1
271 BLAUWART EMMANUEL 26 4:40:56 8,1 97 V1
272 WAROUX PATRICK 540 4:40:57 8,1 41 V2
273 PIEDBOEUF JEAN 376 4:41:17 8,1 98 V1
274 LE BUSSY PHILIPPE 194 4:41:22 8,1 116 S
275 BESONHE SIMON 23 4:41:23 8,1 117 S
276 KERIS PASCAL 436 4:41:35 8,1 99 V1
277 DALEM PIERRE-YVES 62 4:41:53 8,1 100 V1
278 HEYNS CHRISTOPHE 163 4:42:09 8,1 101 V1
279 EL IDRISI MUSTAFA 475 4:42:22 8,1 102 V1
280 DEPOORTER FRÉDÉRIC 89 4:42:28 8,1 118 S
281 THIELTGEN ERIC 487 4:42:42 8,1 42 V2
282 DEMARET BENOIT 83 4:42:48 8,1 119 S
283 HANSSEN ROLAND 146 4:42:50 8,1 103 V1
284 LUCASSEN PHILIPPE 210 4:42:52 8,1 104 V1
285 GALERIN MATHIEU 537 4:42:54 8,1 120 S
286 DORNFELD ELLE 505 4:43:50 8,0 3 D
287 LACROIX PASCAL 185 4:44:13 8,0 105 V1
288 MONTYNE GRÉGORY 233 4:44:20 8,0 121 S
289 MATTHYS MICHEL 222 4:44:21 8,0 122 S
290 RADERMACHER ARNAUD 266 4:44:22 8,0 123 S
291 STATSYNS JEAN-FRANÇOIS 305 4:44:31 8,0 106 V1
292 HENRY EMMANUEL 156 4:44:48 8,0 124 S
293 BUCHTER MARTIN 504 4:44:51 8,0 43 V2
294 ADAM JEROME 464 4:45:01 8,0 125 S
295 REGNIER DIDIER 507 4:45:33 8,0 107 V1
296 WROBEL PHILIPPE 362 4:45:53 8,0 126 S
297 VERHAEGHE PATRICK 342 4:46:00 8,0 44 V2
298 CRANSVELD CHRISTIANE 58 4:46:01 8,0 7 A1
299 BAIX CORINNE 9 4:46:13 8,0 4 D
300 LEBON DOMINIQUE 195 4:46:14 8,0 45 V2
301 RAUW OLIVIER 409 4:47:04 7,9 108 V1
302 DECLERCQ CHRISTOPHE 513 4:47:44 7,9 109 V1
303 VERVOORT GUIDO 346 4:47:51 7,9 46 V2
304 MORAY FRANCOISE 234 4:47:58 7,9 5 A2
305 GOSSELIN ROBERT 136 4:48:36 7,9 110 V1
306 GOESSENS SEBASTIEN 132 4:48:54 7,9 127 S
307 MICHIELS ALEX 411 4:48:59 7,9 111 V1
308 HORWARD BENE 520 4:49:06 7,9 8 A1
309 BEYER BRUNO 24 4:49:07 7,9 47 V2
310 PAWELKOWSKI DAVID 248 4:49:11 7,9 128 S
311 BOGAR TONY 27 4:49:12 7,9 112 V1
312 SCHYNS ANNE 530 4:49:22 7,9 6 A2
313 ROOMANS BENOIT 554 4:49:29 7,9 129 S
314 MEERWIJK MARTIJN 224 4:49:33 7,9 113 V1
315 CLAES LAURENT 52 4:49:54 7,9 114 V1
316 DONNEAUX MARIE 435 4:50:18 7,9 5 D
317 LAMBERT BENOIT 190 4:50:24 7,9 115 V1
318 TOUSSAINT IVAN 317 4:50:34 7,8 130 S
319 RAEYMAEKERS CHRIS 268 4:50:45 7,8 116 V1
320 DAVIS JANE 67 4:51:06 7,8 6 D
321 STAINIER ERIC 576 4:51:19 7,8 48 V2
322 HIGNY MARC 529 4:52:22 7,8 117 V1
323 WOUTERS YVES 480 4:54:23 7,7 118 V1
324 MINGUET LAURENCE 449 4:54:25 7,7 9 A1
325 SOMERS LUDO 298 4:54:38 7,7 49 V2
326 DA SILVA LIONEL 557 4:54:53 7,7 131 S
327 BOULANGER EMMANUEL 32 4:55:00 7,7 119 V1
328 STOFFELS ALAIN 439 4:55:18 7,7 120 V1
329 BOECKX LIESBET 479 4:55:32 7,7 10 A1
330 DE STAERCKE JEAN-BENOIT 70 4:55:42 7,7 50 V2
331 ROMANOVA JULIA 278 4:55:56 7,7 11 A1
332 ETIENNE NADIA 426 4:56:08 7,7 7 A2
333 SAFIN ANTOINE 282 4:56:12 7,7 132 S
334 LEJEUNE CHRISTINE 532 4:56:14 7,7 8 A2
335 ROSSI STEPHANE 523 4:56:27 7,7 121 V1
336 PHILIPPOT VALÉRY 256 4:56:42 7,7 133 S
337 DUMONT DE CHASSART JUAN 111 4:57:21 7,7 1 EG
338 GREGOIRE CLAUDE 140 4:57:44 7,7 51 V2
339 REUCHAMPS RÉGINE 276 4:57:47 7,7 12 A1
340 HANS VINCENT 495 4:57:59 7,7 122 V1
341 PATRICK KEUS 245 4:57:59 7,7 123 V1
342 BRUYÈRE OLIVIER 41 4:58:02 7,6 134 S
343 FERNANDEZ SAN 509 4:58:22 7,6 124 V1
344 RODDE JAN-HENNING 510 4:58:23 7,6 135 S
345 HEUKEMES ALAIN 431 4:58:28 7,6 125 V1
346 DEWEZ MICHAEL 98 4:58:53 7,6 136 S
347 VERMEULEN STEFAN 430 4:58:56 7,6 137 S
348 GALLE TIMOTHY 125 4:59:37 7,6 138 S
349 SPIJKERS RICHARD 301 4:59:38 7,6 139 S
350 PERUZZANI SERGES 252 5:00:03 7,6 5 V3
351 BASTIN AUBERT 547 5:00:19 7,6 6 V3
352 DENOZ MAXIME 488 5:00:40 7,6 140 S
353 ELOYE JONATHAN 634 5:00:41 7,6 141 S
354 SCHROUBBEN JULIE 500 5:00:46 7,6 13 A1
355 DOHOGNE SANDRINE 499 5:00:49 7,6 14 A1
356 MERCHIE RIK 541 5:00:52 7,6 142 S
357 TERWIEL JOOP 311 5:00:56 7,6 7 V3
358 NEUVILLE FREDDY 373 5:01:08 7,6 52 V2
359 MASSART THIERRY 550 5:01:48 7,6 53 V2
360 VAN BALLAER STAF 474 5:01:58 7,6 8 V3
361 DEFLANDRE JEAN-MARIE 77 5:02:21 7,5 54 V2
362 DESSY OLIVIER 396 5:02:24 7,5 143 S
363 DEMOLIN GAUTIER 477 5:02:42 7,5 126 V1
364 SIMON FABIENNE 292 5:02:56 7,5 9 A2
365 MESTRE TUN 397 5:03:02 7,5 55 V2
366 PINDVILLE CHRISTIAN 481 5:03:03 7,5 9 V3
367 DETREMBLEUR VERONIQUE 96 5:03:45 7,5 10 A2
368 THEATRE JEAN BENOIT 312 5:03:58 7,5 127 V1
369 SERVAIS NATHALIE 440 5:04:20 7,5 11 A2
370 VROLIX MYRIAM 352 5:04:35 7,5 15 A1
371 RAGETLIE JASPER 371 5:04:57 7,5 128 V1
372 FRIPPIAT FREDERIC 416 5:05:41 7,5 129 V1
373 DUCHENE MICHELLE 109 5:06:13 7,4 12 A2
374 DENIS CHANTAL 444 5:06:34 7,4 16 A1
375 PRIJOT FABRICE 467 5:06:37 7,4 130 V1
376 STAAL JAN 303 5:07:25 7,4 10 V3
377 TEMPELS ALAIN 417 5:08:08 7,4 56 V2
378 VAN DYCK PETER 326 5:08:08 7,4 131 V1
379 HAGELSTEIN ERIC 145 5:08:10 7,4 144 S
380 RENSONNET RAPHAEL 274 5:08:28 7,4 145 S
381 SPLINGARD FRANÇOIS 302 5:08:34 7,4 132 V1
382 NOEL BEATRICE 497 5:08:36 7,4 7 D
383 ALEXANDRE SEBASTIEN 394 5:08:47 7,4 133 V1
384 BIET NANA 404 5:08:52 7,4 13 A2
385 GROLLINGER THIERRY 143 5:08:58 7,4 134 V1
386 DESTRES LINDA 95 5:08:59 7,4 17 A1
387 DECKERS JEAN-LOUIS 74 5:10:06 7,4 135 V1
388 DESMET THIERRY 93 5:10:46 7,3 136 V1
389 EL OUAZGHARI ALI 114 5:10:48 7,3 137 V1
390 RASTOUL GRÉGOIRE 270 5:10:51 7,3 146 S
391 LEJOSNE ALEXANDRE 201 5:10:53 7,3 147 S
392 DERIGNY ROMAIN 91 5:10:56 7,3 148 S
393 JOURDANT DENYS 180 5:10:58 7,3 138 V1
394 NÉMANN BRUNO 238 5:11:00 7,3 149 S
395 RYCKEWAERT JURGEN 519 5:11:07 7,3 139 V1
396 BASTIN VINCENT 13 5:12:05 7,3 150 S
397 ROUSSEL GERALD 521 5:13:17 7,3 151 S
398 KURIYAN RAVINDRA 522 5:13:17 7,3 140 V1
399 VANESSE JEAN-DENIS 337 5:13:55 7,3 141 V1
400 GRANDMONT ANDRÉ 138 5:14:16 7,3 57 V2
401 MELOT VERONIQUE 640 5:14:24 7,3 14 A2
402 RAUSIN CECILE 272 5:16:24 7,2 18 A1
403 RAUSIN BERNARD 271 5:16:25 7,2 58 V2
404 STIEVENART FRANCK 307 5:16:42 7,2 142 V1
405 FINCK ANDY 120 5:17:12 7,2 143 V1
406 DABE JEANIQUE 61 5:17:17 7,2 15 A2
407 MARCHAL MARIE-ANNE 458 5:17:18 7,2 4 A3
408 STEINIER THIERRY 306 5:17:45 7,2 59 V2
409 ROSA LAURENT 570 5:19:29 7,1 144 V1
410 BRAGARD ÉRIC 35 5:20:30 7,1 145 V1
411 BORDAS BAPTISTE 438 5:20:45 7,1 152 S
412 CLAASSEN KLAUS 511 5:21:24 7,1 153 S
413 DEPRET OLIVIER 90 5:21:50 7,1 146 V1
414 PAQUAY DIDIER 638 5:21:51 7,1 147 V1
415 AMANT NICOLAS 5 5:21:55 7,1 154 S
416 JUDEX JEAN-MICHEL 517 5:22:44 7,1 60 V2
417 ADAMS MICHAEL 506 5:22:45 7,1 61 V2
418 VAN AUTREVE BOUDEWIJN 446 5:23:18 7,1 155 S
419 PAPPOT CARLO 242 5:23:40 7,0 148 V1
420 LEROY STEPHANIE 447 5:23:45 7,0 8 D
421 CLOSE DIDIER 422 5:23:46 7,0 149 V1
422 LARCIER LOGAN 515 5:23:48 7,0 156 S
423 VILLERS ANNE 348 5:25:23 7,0 19 A1
424 GOHY VALÉRIE 133 5:26:23 7,0 20 A1
425 SIMON BABOU 400 5:26:24 7,0 5 A3
426 EYEN CLAIRE 116 5:26:25 7,0 21 A1
427 LEYENS PATRICK 433 5:27:06 7,0 150 V1
428 MEELBERGHS DIRK 223 5:27:46 7,0 151 V1
429 CHAINEUX MARC 420 5:30:24 6,9 152 V1
430 HUBERT OLIVIER 399 5:30:26 6,9 157 S
431 BROWET JOELLE 39 5:30:47 6,9 22 A1
432 DENOEL ALINE 87 5:30:48 6,9 23 A1
433 MAWET NATHALIE 403 5:30:49 6,9 24 A1
434 DONNAY SANDRINE 104 5:30:53 6,9 25 A1
435 GASPARD REBECCA 387 5:30:54 6,9 9 D
436 VANDEVOIR MICHEL 386 5:30:55 6,9 153 V1
437 DECORTE CLAUDE 75 5:32:23 6,9 154 V1
438 WERY AXEL 405 5:33:06 6,8 158 S
439 PAULIS MICHEL 427 5:35:12 6,8 62 V2
440 FORTEMPS MICHEL 123 5:35:13 6,8 63 V2
441 VAN DEN BROECK MAURICE 324 5:35:38 6,8 11 V3
442 DENARD MARC 86 5:35:59 6,8 12 V3
443 MARECHAL FERNAND 574 5:39:03 6,7 13 V3
444 WERBROUCK NATHALIE 357 5:40:33 6,7 16 A2
445 HEEMSKERK SIMONE 148 5:41:44 6,7 26 A1
446 GOUWENS MARCO 137 5:41:44 6,7 155 V1
447 DUTHYE PASCALINE 112 5:42:24 6,7 27 A1
448 BEGHIN PHILIPPE 15 5:42:26 6,7 159 S
449 SCHOEFS LUCIEN 287 5:42:39 6,7 14 V3
450 LEBRUN FREDLECORSAIRE 196 5:42:43 6,7 156 V1
451 LEGRU FREDERICK 493 5:42:49 6,7 160 S
452 DOHOGNE CHRISTIAN 103 5:43:31 6,6 161 S
453 BOULANGER JACQUES 485 5:43:45 6,6 157 V1
454 BOULANGER GENE 486 5:43:47 6,6 28 A1
455 WINANDY JEAN-PIERRE 361 5:46:32 6,6 64 V2
456 PIRARD JEAN-LUC 434 5:47:33 6,6 158 V1
457 BRUNNMEIER WOLFRAM 40 5:47:52 6,6 15 V3
458 DIROMANA SILVANA 457 5:48:22 6,5 17 A2
459 TOMESEN IZABELA 315 5:48:37 6,5 18 A2
460 RENARD THIERRY 556 5:49:38 6,5 159 V1
461 BOYDENS WIM 33 5:51:51 6,5 162 S
462 MASSON PASCALE 473 5:51:56 6,5 19 A2
463 VAN DE WIELE CHANTAL 559 5:51:57 6,5 20 A2
464 ONNAU SERGE 239 5:52:08 6,5 160 V1
465 CERVERA ANA 48 5:54:20 6,4 21 A2
466 COLLARD PIERRE 54 5:54:21 6,4 161 V1
467 LEQUEUX JEAN-PIERRE 205 5:54:22 6,4 162 V1
468 MILANTS BERNARD 230 5:55:24 6,4 163 V1
469 DECLERCQ DOMINIC 514 5:56:04 6,4 163 S
470 DESMET MICHAEL 92 5:57:02 6,4 164 V1
471 FETTWEIS THIERRY 468 5:58:40 6,4 65 V2
472 HENNEMAN VANESSA 154 6:01:13 6,3 29 A1
473 VANDERYDT PATRICK 336 6:01:13 6,3 165 V1
474 VERLINDEN JEF 344 6:06:22 6,2 16 V3
475 SCHOLTS STIJN 459 6:08:44 6,2 166 V1
476 WARNAU YVES 354 6:11:40 6,1 17 V3
477 LYMEEL DEBORAH 524 6:17:14 6,0 22 A2
478 VAN HIEL PAUL 525 6:17:14 6,0 164 S
479 MACHIELS PATRICK 212 6:24:29 5,9 66 V2
480 JONKER WIETZE 179 6:33:10 5,8 67 V2
481 RYSENAER MICHEL 398 6:50:01 5,6 18 V3